Wind_Speed
19 19 17 17 15 14 12 11 10 8 7 7 6 5 4 4 3 3 5 5 5 5 5 6 7 8 8 8 9 9 10 11 12 10 9 7 8 9 11 13 11 12 16 25 32 25 21
21 21 16 16 17 14 13 13 11 9 8 8 6 5 5 5 5 6 7 7 8 8 10 10 11 11 13 13 14 12 13 12 12 12 10 9 8 8 11 12 13 14 19 22 33 35 32
20 19 18 17 17 18 16 14 12 10 8 9 7 7 7 6 7 8 9 9 10 11 12 12 12 11 14 13 13 15 13 13 14 13 13 12 10 9 10 11 13 13 14 18 25 35 36
20 19 18 19 18 16 15 14 12 11 10 9 8 7 7 8 8 9 10 10 11 12 13 13 14 14 16 15 16 15 15 15 14 14 14 13 11 9 9 11 12 12 10 12 14 21 28
19 19 20 19 18 18 17 16 14 12 11 10 9 8 9 10 9 9 10 11 12 13 15 15 17 16 16 17 17 16 16 16 16 15 15 13 10 9 9 9 9 8 3 4 7 13 15
19 19 19 20 20 19 18 16 14 13 12 12 12 11 11 10 9 9 11 11 13 15 14 14 15 15 15 13 15 16 15 14 14 14 14 12 8 8 7 6 6 12 6 4 11 12 11
21 22 22 23 23 21 19 17 16 15 14 13 13 12 11 10 10 11 12 11 12 14 15 15 15 15 13 14 13 13 14 14 13 13 12 9 7 7 8 8 15 9 14 14 9 7 14
24 23 23 23 23 22 20 19 16 15 14 15 14 12 12 11 11 11 12 13 14 12 12 12 12 11 13 13 13 14 13 13 13 13 12 9 8 4 12 7 19 17 12 22 23 16 13
23 23 23 23 23 22 21 18 18 18 17 16 15 14 13 12 11 12 13 13 11 11 9 8 9 10 12 13 13 14 14 13 13 13 12 9 7 5 15 16 15 15 14 24 24 25 21
23 22 23 23 23 21 20 20 20 19 18 17 16 15 14 12 12 12 10 8 7 8 6 3 5 7 9 12 14 11 11 12 13 13 9 8 13 10 20 7 13 12 9 10 23 23 31
23 24 24 24 24 22 22 22 20 19 18 17 17 16 14 14 12 9 7 4 4 4 7 7 5 5 9 11 10 12 11 11 11 9 11 7 9 17 14 6 9 7 13 17 19 15 16
26 26 25 25 24 23 22 21 20 20 19 18 18 16 16 12 9 8 8 6 3 1 3 7 6 8 9 10 10 10 11 12 9 6 6 13 16 15 10 9 15 12 18 17 14 12 7
28 27 26 25 24 23 23 22 22 22 20 20 19 18 13 11 10 10 8 7 5 3 3 9 8 7 10 11 14 18 13 8 7 8 6 12 20 15 14 10 16 6 8 10 9 5 10
28 28 27 26 25 24 23 23 23 22 22 22 18 14 14 13 12 12 9 8 7 10 6 12 12 11 8 14 9 14 13 14 12 9 8 14 15 7 20 11 8 13 5 10 13 14 18
30 29 29 28 26 26 25 25 26 25 23 20 18 18 17 14 14 14 11 10 14 17 16 10 10 13 13 15 11 17 9 11 16 14 6 15 15 11 13 10 8 9 16 15 16 15 20
32 32 30 30 29 27 26 26 27 26 24 23 23 22 19 17 17 16 14 15 15 17 17 14 13 14 9 6 17 11 11 19 23 18 12 15 14 10 10 9 6 10 14 21 23 26 26
36 34 33 33 32 31 30 29 29 28 27 26 26 24 21 19 19 19 19 21 22 21 16 18 19 19 18 20 23 21 18 23 23 17 13 18 17 15 19 19 18 14 20 18 17 28 28
39 37 37 36 33 32 31 31 31 31 30 29 29 26 18 20 19 22 22 25 25 24 15 20 20 22 21 25 28 20 29 29 21 21 18 22 18 16 18 18 23 24 25 25 22 20 31
41 40 39 38 35 33 33 33 33 34 34 32 30 27 22 22 22 21 25 26 27 27 21 23 23 24 26 25 28 26 29 30 27 18 20 24 26 20 17 18 25 26 26 27 29 28 25
42 42 41 38 37 36 36 36 35 36 36 35 32 30 28 23 26 25 26 25 26 23 25 26 24 26 26 25 29 29 30 36 28 23 24 27 27 28 25 22 25 27 26 28 29 27 18
44 43 40 39 39 39 37 37 38 38 38 37 36 35 29 28 27 26 27 28 26 27 27 28 24 29 29 30 31 33 33 38 33 29 27 28 28 31 32 30 30 32 32 33 35 32 33
44 44 41 41 42 40 39 37 39 40 40 41 38 34 32 33 30 29 32 30 31 31 31 29 27 29 31 35 34 31 34 36 36 37 33 27 31 34 35 33 36 38 36 35 36 38 37
45 44 44 43 42 39 40 38 39 41 42 41 38 38 36 36 35 32 32 36 37 36 35 36 30 28 36 35 31 31 34 37 39 40 37 37 35 34 38 34 39 45 34 33 35 38 39
44 44 44 43 42 41 41 41 41 42 42 42 40 41 39 36 38 35 36 40 39 39 36 38 37 35 35 33 35 35 38 40 41 40 40 39 39 42 43 38 42 34 34 33 35 35 36
45 44 43 42 42 42 42 43 43 42 42 43 42 42 42 39 40 40 44 40 42 39 38 36 42 39 37 37 39 40 40 41 39 40 40 40 42 42 44 43 41 41 34 35 38 39 38
42 44 43 40 40 40 41 42 43 43 42 44 43 43 44 42 43 45 40 42 44 38 41 40 41 43 41 38 40 43 42 42 42 41 39 42 44 45 45 45 46 45 41 42 44 44 42
43 43 43 43 42 44 42 43 42 41 41 44 42 43 45 45 44 47 45 46 44 41 42 45 47 44 42 41 43 44 45 44 44 41 41 45 47 47 46 48 48 45 42 43 46 45 43
38 41 42 44 47 47 47 46 43 44 45 46 45 46 49 48 47 51 49 46 46 47 48 44 46 48 46 44 43 44 47 45 47 46 45 45 48 50 51 53 54 50 45 45 46 48 48
37 39 41 41 41 44 43 44 46 44 43 46 46 44 48 49 45 42 41 43 42 47 44 42 42 44 48 49 46 42 42 45 46 46 46 49 46 47 53 54 54 54 56 56 52 49 49
Wind_Direction
234 237 227 227 224 212 210 214 217 214 212 208 198 199 209 216 209 231 244 255 263 277 290 288 296 301 306 310 311 312 318 325 325 328 338 323 298 268 252 243 233 213 209 197 205 200 204
231 233 224 218 214 208 205 208 214 212 204 211 200 200 212 221 228 239 250 261 274 290 290 290 291 296 296 294 295 294 299 303 304 310 311 310 298 280 260 256 244 222 205 208 210 221 220
227 225 220 214 210 203 204 204 208 209 217 221 215 217 224 235 246 253 267 278 282 281 283 288 294 302 298 298 293 296 295 292 290 291 293 291 290 285 277 257 243 235 236 231 219 224 234
221 221 218 215 213 208 207 211 213 218 224 232 231 233 237 246 254 266 269 274 282 288 290 296 298 298 295 299 297 292 289 284 279 276 275 274 277 278 275 259 264 259 258 262 259 244 246
221 221 216 215 212 211 214 216 220 225 230 233 239 240 241 247 251 259 273 282 288 290 295 298 298 297 296 296 296 295 290 282 276 271 268 269 269 266 268 267 254 236 222 312 288 279 260
223 224 224 219 215 214 218 223 229 230 230 236 234 235 240 244 256 271 279 284 288 290 293 295 295 297 297 301 301 297 293 286 277 270 266 260 257 258 251 254 228 220 216 358 336 7 289
225 223 219 216 214 217 220 223 227 230 234 234 240 239 241 254 265 273 273 277 282 288 291 289 293 295 299 298 300 302 298 290 277 262 259 258 237 246 223 198 171 203 216 224 204 265 270
221 220 218 217 217 221 223 224 229 232 235 236 237 242 248 257 265 272 279 284 283 283 285 288 291 296 304 313 309 305 299 290 277 262 253 225 221 213 216 205 204 228 254 207 187 195 219
220 219 219 219 220 221 224 227 231 234 231 233 236 241 250 254 263 276 286 285 291 293 281 291 293 306 313 316 316 309 302 296 282 270 247 225 204 299 267 242 257 247 249 222 209 210 223
221 219 220 222 224 223 226 229 230 230 229 232 237 242 245 253 270 278 284 295 292 280 299 319 337 332 325 327 323 328 317 303 289 268 250 207 172 261 269 285 262 245 222 229 225 241 235
222 222 222 223 224 226 227 227 226 228 231 235 241 242 246 256 260 272 280 276 267 284 318 335 354 333 326 323 326 339 335 323 307 281 252 196 193 277 281 280 310 234 221 219 235 253 259
222 222 222 223 222 224 225 227 229 234 237 237 236 238 243 249 259 259 252 254 243 270 290 309 322 315 308 299 331 350 334 324 313 304 295 188 200 239 285 254 241 279 247 267 268 278 300
222 223 223 223 223 224 228 231 232 232 234 236 236 237 239 249 242 243 251 245 248 224 283 293 305 300 315 329 314 317 335 326 308 274 221 191 218 244 260 269 247 284 259 266 246 255 300
224 226 224 226 227 228 229 233 234 233 233 234 234 237 240 237 235 239 242 250 237 246 244 256 282 285 280 237 267 274 308 316 304 306 268 240 249 245 230 245 176 218 313 272 263 222 264
226 229 228 228 230 231 232 234 233 232 233 234 232 234 234 236 237 239 237 243 236 243 255 287 272 270 267 268 277 284 277 283 278 305 282 271 260 281 285 242 272 289 251 251 281 238 250
229 230 230 230 231 231 233 235 233 234 233 231 233 231 234 235 237 237 239 239 251 263 259 260 264 262 244 273 284 276 238 254 266 268 258 265 268 259 245 258 266 297 271 241 255 266 252
232 233 232 230 231 234 236 238 236 234 232 231 235 234 238 242 241 236 233 238 245 255 254 248 246 255 258 222 233 255 256 253 277 283 255 254 267 260 265 265 258 246 264 272 259 266 272
232 233 235 234 234 238 241 241 240 235 231 233 236 238 242 247 243 235 234 242 249 260 248 250 246 248 253 254 262 254 248 266 277 284 270 277 270 257 253 264 265 262 262 275 268 248 254
233 234 235 236 237 240 243 243 241 234 232 234 239 243 230 246 246 243 243 246 245 255 247 252 252 249 252 254 260 259 254 258 270 278 265 266 270 266 254 249 253 259 264 263 265 274 269
237 235 236 237 240 243 243 241 239 234 232 234 236 241 241 242 245 245 248 248 252 250 253 251 255 254 258 264 263 259 254 264 263 266 261 263 266 268 265 261 263 262 262 267 272 274 272
237 239 241 244 244 242 242 242 238 234 233 234 234 239 248 244 250 254 257 257 254 256 251 257 254 258 259 260 257 260 254 257 269 265 261 267 269 265 266 265 258 266 268 268 273 273 271
238 240 241 242 241 241 242 241 238 235 234 235 238 242 244 249 246 245 252 255 257 258 259 254 255 261 269 268 266 266 266 266 269 275 272 258 261 269 271 269 266 262 258 263 266 273 276
238 239 241 242 243 243 243 241 238 237 236 236 237 241 244 249 251 250 251 249 252 255 259 268 266 265 267 269 269 266 259 258 261 267 274 280 277 267 265 264 267 268 277 266 263 264 270
239 240 240 242 243 244 243 243 239 237 237 237 239 244 246 246 251 253 251 255 257 259 260 267 267 267 268 269 268 260 259 257 258 264 269 272 273 275 275 271 268 278 269 270 268 262 261
239 241 242 243 244 244 245 244 242 241 241 242 243 245 247 246 249 251 252 257 261 260 264 262 268 267 267 269 265 263 262 261 262 262 264 268 267 269 271 273 275 276 280 272 264 260 262
239 239 238 242 243 244 244 246 246 244 244 244 245 247 247 247 247 251 257 260 261 260 260 261 263 270 273 267 265 266 264 263 263 263 259 262 266 269 272 274 273 281 278 270 269 271 268
238 238 236 238 242 242 243 244 248 250 250 251 250 249 251 252 253 253 255 259 263 265 263 264 266 269 270 268 267 263 265 266 266 270 271 270 270 271 269 271 270 271 271 275 273 271 266
243 239 242 243 239 243 246 248 250 253 252 251 252 254 254 256 260 259 258 260 263 263 263 264 269 270 270 268 265 266 267 268 267 267 268 270 271 271 272 274 276 280 274 269 271 271 271
241 245 243 243 244 244 250 250 251 254 255 253 254 254 257 255 257 258 258 262 261 262 267 268 268 268 270 272 272 271 270 268 267 268 270 270 261 258 267 272 273 273 274 276 277 272 268
Height
5833 5836 5838 5840 5842 5845 5847 5850 5853 5854 5856 5858 5858 5859 5861 5862 5862 5864 5866 5867 5868 5868 5869 5869 5869 5870 5870 5872 5871 5871 5871 5870 5870 5869 5869 5869 5869 5870 5871 5871 5871 5873 5875 5877 5879 5879 5880
5830 5833 5835 5838 5840 5842 5846 5849 5851 5853 5854 5856 5856 5857 5859 5861 5861 5863 5864 5865 5866 5865 5867 5867 5867 5868 5869 5869 5868 5868 5867 5867 5868 5868 5866 5867 5867 5867 5868 5869 5869 5869 5869 5873 5876 5876 5876
5827 5830 5833 5835 5839 5841 5844 5847 5849 5851 5852 5854 5855 5856 5857 5859 5860 5861 5862 5863 5863 5863 5864 5864 5864 5864 5865 5866 5866 5864 5864 5865 5864 5864 5864 5864 5864 5864 5865 5866 5866 5866 5868 5869 5871 5872 5873
5824 5826 5829 5833 5836 5838 5840 5844 5846 5848 5850 5852 5853 5854 5855 5857 5857 5858 5859 5859 5860 5860 5861 5860 5861 5862 5861 5861 5860 5861 5861 5861 5861 5861 5861 5861 5861 5862 5863 5863 5864 5865 5866 5868 5870 5870 5871
5819 5822 5826 5829 5832 5835 5838 5841 5843 5845 5847 5849 5850 5852 5853 5855 5855 5856 5856 5856 5857 5858 5857 5857 5858 5858 5858 5857 5857 5857 5857 5857 5857 5856 5857 5857 5857 5858 5860 5861 5862 5864 5864 5866 5868 5867 5869
5815 5819 5821 5825 5829 5832 5835 5838 5840 5842 5844 5846 5848 5849 5851 5851 5852 5852 5853 5853 5854 5854 5854 5853 5854 5856 5855 5854 5853 5853 5853 5853 5853 5853 5853 5854 5854 5856 5857 5859 5861 5859 5859 5862 5864 5868 5867
5813 5816 5819 5822 5826 5829 5832 5834 5837 5840 5841 5842 5845 5846 5847 5848 5848 5849 5851 5852 5853 5852 5850 5850 5850 5850 5850 5850 5850 5850 5849 5849 5849 5849 5850 5851 5852 5853 5855 5856 5857 5857 5857 5859 5863 5864 5864
5809 5812 5815 5818 5821 5825 5828 5831 5833 5835 5837 5839 5841 5842 5844 5845 5846 5847 5848 5847 5847 5848 5846 5846 5846 5846 5847 5847 5847 5846 5846 5847 5846 5846 5847 5848 5848 5851 5850 5851 5853 5853 5855 5856 5859 5860 5861
5804 5807 5811 5814 5818 5821 5823 5826 5829 5831 5833 5836 5838 5839 5840 5842 5843 5844 5844 5844 5842 5841 5844 5844 5843 5843 5843 5843 5843 5844 5844 5844 5843 5843 5844 5844 5845 5847 5848 5849 5850 5852 5853 5855 5858 5857 5856
5799 5803 5806 5810 5813 5816 5819 5822 5825 5827 5830 5832 5834 5836 5837 5839 5841 5840 5840 5839 5838 5838 5839 5841 5840 5840 5841 5840 5840 5841 5841 5842 5841 5841 5841 5843 5845 5846 5844 5848 5847 5848 5850 5850 5851 5854 5854
5795 5799 5802 5805 5809 5811 5814 5818 5820 5823 5826 5828 5830 5832 5834 5835 5836 5836 5837 5837 5837 5836 5835 5837 5838 5839 5839 5839 5840 5838 5839 5838 5838 5838 5839 5841 5844 5844 5845 5845 5844 5846 5845 5845 5847 5848 5849
5791 5794 5797 5801 5803 5807 5810 5813 5816 5819 5821 5824 5827 5828 5831 5832 5832 5833 5834 5834 5834 5835 5834 5834 5835 5836 5836 5836 5835 5837 5837 5836 5835 5836 5836 5838 5839 5840 5841 5841 5840 5842 5842 5843 5845 5847 5849
5786 5789 5792 5796 5799 5802 5806 5808 5811 5815 5816 5820 5822 5825 5826 5827 5829 5830 5830 5831 5832 5832 5833 5833 5833 5833 5833 5832 5834 5833 5834 5835 5834 5834 5833 5835 5836 5836 5836 5837 5839 5839 5840 5841 5843 5844 5844
5780 5784 5787 5791 5794 5797 5800 5803 5806 5809 5812 5815 5817 5819 5822 5824 5825 5826 5826 5828 5830 5829 5830 5830 5831 5832 5833 5834 5835 5833 5832 5831 5831 5832 5831 5831 5831 5831 5835 5836 5837 5836 5838 5839 5836 5837 5839
5774 5778 5782 5785 5788 5792 5795 5798 5801 5804 5806 5809 5811 5815 5819 5819 5820 5821 5823 5824 5825 5824 5826 5827 5829 5829 5831 5831 5832 5831 5831 5830 5829 5829 5832 5830 5830 5831 5831 5834 5836 5837 5835 5834 5831 5834 5834
5767 5771 5775 5779 5783 5785 5789 5792 5795 5798 5801 5803 5807 5811 5812 5813 5814 5816 5818 5819 5821 5821 5822 5824 5824 5826 5827 5828 5827 5828 5829 5825 5825 5825 5828 5828 5828 5829 5828 5829 5833 5831 5830 5832 5830 5829 5830
5759 5764 5768 5772 5776 5779 5783 5786 5788 5791 5795 5798 5801 5805 5805 5807 5808 5810 5812 5813 5813 5815 5818 5818 5819 5820 5823 5823 5821 5823 5823 5821 5821 5822 5824 5823 5825 5828 5827 5827 5825 5827 5824 5825 5827 5826 5824
5752 5756 5761 5765 5768 5772 5775 5778 5781 5784 5788 5792 5794 5797 5800 5800 5803 5803 5805 5806 5808 5808 5813 5812 5814 5814 5816 5817 5816 5819 5814 5815 5820 5819 5821 5820 5822 5822 5824 5825 5825 5821 5821 5819 5819 5823 5819
5742 5747 5752 5756 5759 5762 5766 5769 5773 5777 5781 5785 5787 5789 5794 5793 5795 5797 5797 5799 5801 5802 5806 5806 5808 5807 5808 5810 5812 5813 5810 5810 5811 5815 5815 5815 5814 5817 5819 5821 5818 5817 5817 5814 5812 5813 5816
5732 5737 5742 5746 5750 5753 5757 5761 5764 5768 5773 5778 5781 5780 5783 5787 5787 5790 5791 5794 5795 5797 5797 5798 5801 5801 5802 5804 5803 5805 5807 5801 5805 5807 5808 5808 5810 5810 5812 5814 5812 5811 5811 5810 5810 5810 5809
5723 5728 5732 5736 5740 5745 5748 5752 5755 5759 5764 5768 5771 5771 5776 5779 5782 5784 5785 5786 5788 5788 5790 5791 5794 5792 5794 5794 5794 5796 5797 5794 5795 5797 5800 5802 5803 5802 5803 5805 5806 5803 5803 5804 5802 5805 5805
5711 5717 5721 5727 5731 5735 5738 5742 5746 5749 5754 5758 5762 5766 5768 5769 5774 5776 5776 5778 5779 5779 5781 5783 5785 5785 5785 5783 5786 5789 5789 5790 5789 5787 5789 5794 5793 5792 5792 5795 5795 5793 5794 5795 5796 5796 5795
5700 5706 5712 5716 5721 5725 5729 5732 5736 5740 5744 5748 5753 5754 5759 5761 5763 5767 5769 5768 5769 5771 5773 5772 5778 5780 5774 5776 5780 5781 5781 5780 5778 5777 5779 5779 5781 5783 5781 5785 5781 5778 5789 5789 5789 5788 5787
5690 5695 5701 5705 5710 5715 5719 5722 5726 5730 5734 5738 5742 5744 5749 5754 5754 5756 5757 5755 5759 5762 5766 5764 5766 5768 5769 5769 5769 5770 5769 5770 5768 5770 5770 5771 5770 5768 5768 5772 5770 5777 5776 5778 5778 5778 5778
5678 5684 5690 5695 5699 5704 5708 5711 5715 5720 5724 5727 5731 5735 5737 5742 5743 5745 5742 5748 5749 5753 5755 5757 5754 5758 5758 5758 5758 5758 5760 5760 5761 5761 5761 5761 5759 5759 5757 5759 5762 5762 5767 5766 5762 5765 5764
5668 5673 5679 5684 5689 5693 5697 5700 5704 5708 5712 5716 5720 5723 5725 5729 5732 5733 5737 5737 5737 5743 5743 5744 5746 5745 5746 5749 5748 5746 5747 5748 5749 5749 5750 5748 5747 5747 5747 5748 5749 5751 5753 5751 5749 5752 5753
5657 5663 5668 5673 5677 5682 5685 5689 5693 5698 5702 5705 5710 5712 5714 5717 5720 5722 5725 5726 5728 5731 5731 5730 5731 5735 5736 5735 5735 5735 5735 5736 5735 5738 5736 5733 5733 5734 5736 5733 5738 5740 5740 5737 5736 5740 5739
5647 5652 5657 5662 5666 5671 5675 5679 5683 5687 5690 5693 5696 5699 5702 5706 5708 5710 5713 5716 5716 5716 5717 5720 5721 5720 5721 5721 5722 5723 5722 5723 5723 5724 5724 5723 5721 5721 5721 5718 5718 5722 5725 5726 5725 5724 5725
5637 5642 5646 5650 5655 5660 5664 5668 5671 5675 5678 5680 5684 5687 5689 5692 5697 5697 5700 5702 5703 5703 5707 5707 5708 5707 5705 5706 5708 5711 5712 5710 5710 5712 5711 5711 5706 5704 5707 5708 5705 5706 5706 5706 5707 5707 5709